Location: Irma
(52.9170°N, 111.2330°W)
Time: 08:46:20
(UTC-06:00)

Cosmos 1633 Rocket - Visible Passes

Search period start: 23 April 2014 00:00
Search period end: 03 May 2014 00:00
Orbit: 610 x 625 km, 82.5° (Epoch: 22 April)

Date Brightness Start Highest point End Pass type
(mag) Time Alt. Az. Time Alt. Az. Time Alt. Az.
23 Apr 3.7 04:49:41 10° S 04:54:01 58° E 04:58:24 10° NNE visible
24 Apr 5.8 03:31:33 10° ESE 03:33:46 14° E 03:35:59 10° NE visible
24 Apr 3.1 05:06:30 10° SSW 05:10:56 85° W 05:15:25 10° N visible
25 Apr 5.3 03:47:01 10° SE 03:50:25 22° E 03:53:50 10° NE visible
25 Apr 3.4 05:23:37 10° SSW 05:27:56 51° WNW 05:32:17 10° N visible
26 Apr 4.5 04:03:07 10° SSE 04:07:09 35° E 04:11:12 10° NNE visible
27 Apr 3.6 04:19:37 10° S 04:23:58 59° E 04:28:21 10° NNE visible
28 Apr 5.7 03:01:27 10° ESE 03:03:42 14° E 03:05:57 10° NE visible
28 Apr 3.1 04:36:26 10° SSW 04:40:53 84° W 04:45:21 10° N visible
29 Apr 5.2 03:16:56 10° SE 03:20:21 22° E 03:23:46 10° NE visible
29 Apr 3.4 04:53:34 10° SSW 04:57:53 50° WNW 05:02:13 10° N visible
30 Apr 4.4 03:33:20 12° SSE 03:37:05 36° E 03:41:08 10° NNE visible
30 Apr 4.1 05:11:00 10° SW 05:14:58 31° WNW 05:18:57 10° N visible
01 May 3.5 03:50:20 15° S 03:53:54 59° E 03:58:17 10° NNE visible
02 May 5.6 02:31:20 10° ESE 02:33:37 14° E 02:35:54 10° NE visible
02 May 3.0 04:07:19 16° SSW 04:10:48 83° W 04:15:16 10° N visible
